#timestamp,LO_Frequency,Hit,StdDev 
1577379615.0,286047007.2,N
1577379616.0,286047007.2,N
1577379635.8,286047005.4,N
1577379655.6,286047005.6,N
1577379675.5,286047007.5,N
1577379695.3,286047007.3,N
1577379715.1,286047006.7,N
1577379735.9,286047007.9,N
1577379755.7,286047009.1,N
1577379775.6,286047008.8,N
1577379795.4,286047006.7,N
1577379815.2,286047007.0,N
1577379835.1,286047005.7,N
1577379836.0,286047005.7,N
1577379855.8,286047003.5,N
1577379875.6,286047001.3,N
1577379895.5,286047001.9,N
1577379915.3,286047003.1,N
1577379935.2,286047005.8,N
1577379955.9,286047005.9,N
1577379975.7,286047004.2,N
1577379995.6,286047003.0,N
1577380015.4,286047004.6,N
1577380035.3,286047005.2,N
1577380055.1,286047003.3,N
1577380056.0,286047003.3,N
1577380075.8,286047003.5,N
1577380095.7,286047004.3,N
1577380115.5,286047001.7,N
1577380135.3,286047001.4,N
1577380155.2,286047005.7,N
1577380175.0,286047004.7,N
1577380175.9,286047004.7,N
1577380195.8,286047006.2,N
1577380215.6,286047009.0,Y
1577380235.4,286047002.3,P
1577380255.3,286047004.1,P
1577380275.1,286047000.7,N
1577380295.9,286046998.4,N
1577380315.7,286047001.9,N
1577380335.5,286047002.3,N
1577380355.4,286047001.8,N
1577380375.2,286047003.3,N
1577380395.0,286047002.4,N
1577380395.9,286047002.4,N
1577380415.8,286047000.9,N
1577380435.6,286047000.3,N
1577380455.5,286047000.0,N
1577380475.3,286046998.4,N
1577380495.1,286047002.1,N
1577380515.9,286047001.5,N
1577380535.7,286047002.2,N
1577380555.5,286047002.0,N
1577380575.4,286047000.1,N
1577380595.2,286047002.1,N
1577380615.1,286046999.7,N
1577380616.0,286046999.7,N
1577380635.8,286046999.7,N
1577380655.6,286046998.1,N
1577380675.5,286046998.6,N
1577380695.3,286047000.0,N
1577380715.2,286047000.8,N
1577380735.9,286047000.7,N
1577380755.7,286047000.1,N
1577380775.6,286046999.7,N
1577380795.4,286047000.6,N
1577380815.2,286046999.6,N
1577380835.1,286046997.1,N
1577380836.0,286046997.1,N
1577380855.8,286046998.9,N
1577380875.7,286046999.1,N
1577380895.5,286046999.1,N
1577380915.3,286046998.7,N
1577380935.2,286046997.0,N
1577380955.0,286046999.6,N
1577380955.9,286046999.6,N
1577380975.8,286047001.2,N
1577380995.6,286047000.1,N
1577381015.4,286046998.3,N
1577381035.3,286046998.6,N
1577381055.1,286047001.2,N
1577381075.8,286046998.5,N
1577381095.7,286046999.8,N
1577381115.5,286047000.5,N
1577381135.4,286046998.6,N
1577381155.2,286046997.3,N
1577381175.0,286046999.3,N
1577381175.9,286046999.3,N
1577381195.8,286047000.8,N
1577381215.6,286047001.1,N
1577381235.4,286047000.8,N
1577381255.3,286046999.0,N
1577381275.1,286046996.6,N
1577381295.9,286046996.5,N
1577381315.7,286046997.3,N
1577381335.5,286046997.1,N
1577381355.4,286047000.9,N
1577381375.2,286046998.6,N
1577381395.0,286046998.9,N
1577381396.0,286046998.9,N
1577381415.8,286046999.5,N
1577381435.6,286046996.5,N
1577381455.5,286046996.6,N
1577381475.3,286046998.4,N
1577381495.1,286046999.2,N
1577381515.9,286046999.6,N
1577381535.7,286046997.2,N
1577381555.6,286046996.7,N
1577381575.4,286046996.8,N
1577381595.2,286046997.5,N
1577381615.1,286046997.7,N
1577381616.0,286046997.7,N
1577381635.8,286046997.0,N
1577381655.6,286046996.7,N
1577381675.5,286046996.5,N
1577381695.3,286046996.9,N
1577381715.2,286046997.4,N
1577381735.9,286046997.9,N
1577381755.7,286046995.3,Y
1577381775.6,286046997.7,P
1577381795.4,286046998.2,P
1577381815.2,286046998.5,P
1577381835.1,286046998.8,Y
1577381866.0,286047000.3,E
1577381875.0,286046998.2,N
1577381875.9,286046998.2,P
1577381895.8,286047000.5,P
1577381915.6,286047002.2,N
1577381935.5,286047002.0,N
1577381955.3,286047000.3,N
1577381975.1,286046999.8,N
1577381995.9,286047001.7,N
1577382015.7,286047002.2,N
1577382035.5,286047003.0,N
1577382055.4,286047006.0,Y
1577382075.2,286047004.4,P
1577382095.1,286047001.9,N
1577382096.0,286047001.9,N
1577382115.8,286047002.4,N
1577382135.6,286047004.0,Y
1577382155.5,286047000.5,P
1577382175.3,286047000.3,N
1577382225.2,286047002.7,E
1577382235.1,286047002.0,N
1577382255.8,286047000.0,P
1577382275.7,286047003.8,P
1577382295.5,286047003.6,N
1577382315.4,286047005.6,Y
1577382335.2,286047004.3,P
1577382355.0,286047002.2,N
1577382355.9,286047002.2,N
1577382375.8,286047001.7,N
1577382395.6,286047003.8,Y
1577382415.5,286047002.4,P
1577382435.3,286046998.5,P
1577382455.1,286046999.5,N
1577382475.9,286046996.6,N
1577382495.7,286046998.0,N
1577382515.5,286046997.4,N
1577382535.4,286046996.8,N
1577382555.2,286046996.9,N
1577382575.1,286046999.2,N
1577382576.0,286046999.2,N
1577382595.8,286046997.2,N
1577382615.6,286046997.9,N
1577382635.5,286046996.4,N
1577382655.3,286046993.9,Y
1577382675.2,286046996.2,P
1577382695.9,286046993.4,P
1577382715.7,286046993.0,P
1577382735.6,286046992.2,Y
1577382755.4,286046994.9,P
1577382775.2,286046997.1,P
1577382795.1,286046999.2,N
1577382796.0,286046999.2,N
1577382815.8,286046996.6,N
1577382835.7,286046998.7,N
1577382855.5,286047002.8,N
1577382875.3,286047005.0,N
1577382895.2,286047003.7,N
1577382915.0,286047001.9,N
1577382915.9,286047001.9,N
1577382935.7,286047000.0,N
1577382955.6,286047002.6,N
1577382975.4,286047006.0,N
1577382995.3,286047005.7,N
1577383015.1,286047003.1,N
1577383035.8,286047003.4,N
1577383055.7,286047001.8,N
1577383075.5,286047000.6,N
1577383095.4,286047000.4,N
1577383115.2,286047000.9,N
1577383135.0,286047002.4,N
1577383135.9,286047002.4,N
1577383155.8,286047002.6,N
1577383175.6,286047000.2,N
1577383195.4,286047002.4,N
